Regional Weather Roundup
Issued by NWS

Home | Current Version | Previous Version | Graphics & Text | Print | Product List | Glossary On
Versions: 1 2 3 4 5 6 7 8 9 10 11 12 13 14 15 16 17 18 19 20 21 22 23 24 25 26 27 28 29 30 31 32 33 34 35 36 37 38 39 40 41 42 43 44 45 46 47 48 49 50
000
ASUS43 KIND 030859
RWRIN

WEATHER ROUNDUP FOR INDIANA
NATIONAL WEATHER SERVICE INDIANAPOLIS IN
500 AM EDT SUN MAY 03 2015

NOTE: "FAIR" INDICATES FEW OR NO CLOUDS BELOW 12,000 FEET WITH NO
SIGNIFICANT WEATHER AND/OR OBSTRUCTIONS TO VISIBILITY.

* - STATION DOES NOT REPORT WEATHER SUCH AS PRECIPITATION OR FOG.

+ - STATION NOT QUALITY CONTROLLED BY THE NATIONAL WEATHER SERVICE.
    USE DATA WITH CAUTION...ESPECIALLY DEWPOINT AND RELATIVE
    HUMIDITY OBSERVATIONS.

INZ001>003-010>013-019-020-031000-
NORTHWEST INDIANA

CITY           SKY/WX    TMP DP  RH WIND       PRES   REMARKS

$$

LMZ046-743>745-031000-
SOUTHERN LAKE MICHIGAN

STATION/POSITION TIME  TEMP    WIND        PRES    WAVE
                       AIR SEA DIR/SP/G            HT
                 (UTC) (F)     (DEG/KT/KT) (MB)    (FT)
BURNS HARBOR     0800   59     180/ 10/ 13 1015.9S
MICHIGAN CITY    0800   63     170/ 13/ 15   N/A
5NW MICH CITY    0800   57 51  210/  8/ 10   N/A     1

$$

INZ004-005-014>016-021>024-031000-
NORTH CENTRAL INDIANA

CITY           SKY/WX    TMP DP  RH WIND       PRES   REMARKS
GOSHEN         PTCLDY    54  40  59 S5        30.02S
SOUTH BEND     CLEAR     54  39  57 SW7       30.02S

$$

INZ006>009-017-018-025>027-031000-
NORTHEAST INDIANA

CITY           SKY/WX    TMP DP  RH WIND       PRES   REMARKS
ANGOLA *+      CLEAR     48  45  87 CALM      30.03S
FORT WAYNE     MOCLDY    49  42  77 S3        30.05R

$$

INZ028-029-035-036-043>045-051>053-031000-
WEST CENTRAL INDIANA

CITY           SKY/WX    TMP DP  RH WIND       PRES   REMARKS
CRAWFORDSVL +  MOCLDY    49  42  74 SE3       30.04S
GREENCASTLE +  MOCLDY    52  41  66 CALM      30.06S
LAFAYETTE      MOCLDY    52  43  71 CALM      30.03S
TERRE HAUTE    CLOUDY    57  48  72 S6        30.05S

$$

INZ030>032-037>040-046>048-054>057-064-065-031000-
CENTRAL INDIANA

CITY           SKY/WX    TMP DP  RH WIND       PRES   REMARKS
GREENWOOD *+   CLOUDY    54  43  66 S3        30.07R
INDIANAPOLIS   CLOUDY    55  44  66 CALM      30.04S
-EAGLE CREEK   MOCLDY    51  46  83 CALM      30.05S
MT COMFORT *+  MOCLDY    50  41  71 S5        30.07S
SHELBYVILLE    MOCLDY    54  46  74 S3        30.07R

$$

INZ033-034-041-042-049-050-058-059-031000-
EAST CENTRAL INDIANA

CITY           SKY/WX    TMP DP  RH WIND       PRES   REMARKS
MUNCIE         MOCLDY    55  43  63 S6        30.06R

$$

INZ060-061-067>069-081>083-085>088-031000-
SOUTHWEST INDIANA

CITY           SKY/WX    TMP DP  RH WIND       PRES   REMARKS
EVANSVILLE     MOCLDY    54  50  86 CALM      30.07R FOG
HUNTINGBURG *+ PTCLDY    52  46  82 SE3       30.08R

$$

INZ062-063-066-070>080-084-089>092-031000-
SOUTH CENTRAL AND SOUTHEAST INDIANA

CITY           SKY/WX    TMP DP  RH WIND       PRES   REMARKS
BLOOMINGTON    MOCLDY    52  47  83 CALM      30.06S
MADISON *+     PTCLDY    50  46  87 CALM      30.10S
SEYMOUR +      MOCLDY    52  50  93 CALM      30.08R

$$




USA.gov is the U.S. government's official web portal to all federal, state and local government web resources and services.